Location: Unspecified
(0.0000°N, 0.0000°E)
Time: 19:04:03
(UTC+00:00)

S-56A Canister/Altair - Pass Details

Date: 22 November 2019
Orbit: 633 x 2500 km, 38.9° (Epoch: 08 December)

Event Time Altitude Azimuth Distance (km) Brightness Sun altitude
Rises 09:12:39 0° 204° (SSW) 5,530 12.0 47.4°
Reaches altitude 10° 09:17:40 10° 188° (S) 4,794 11.9 48.5°
Maximum altitude 09:27:06 21° 145° (SE) 4,270 12.4 50.5°
Drops below altitude 10° 09:37:04 10° 103° (ESE) 5,143 12.5 52.6°
Sets 09:42:37 0° 88° (E) 6,046 12.5 53.7°
